Starlink 11081

operational
NORAD ID: 60405 Int'l Des: 2024-141 Owner: SPXS Country: US Constellation: starlink
LEOCIRCULAR

Über Starlink 11081

Beschreibung wird geladen...

Live-Position

3D-Globus wird geladen...

Nächste Überflüge

Höhenverlauf

Altitude vs Time

uPlot chart will show altitude changes over time

Zweizeiliger Elementsatz

1 60405U 24141H 26034.58862821 -.00003487 00000-0 -23969-4 0 9999
2 60405 53.1585 254.6069 0000411 110.9628 249.1434 15.69686717 86332
Epoch: 3. Feb. 2026 • Age: 24 hours

Aktueller Status

Höhe 360.3 km
Geschwindigkeit 7.69 km/s
Subsatellitenpunkt 2.98°N, 85.84°E
Startdatum 10. Aug. 2024
Alter 1.4 years
Typ internet

Technische Details

Klassifizierung Payload
Masse 960.00 kg
Trockenmasse 910.00 kg
Gesamtmasse 960.00 kg
Länge 0.30 m
Durchmesser 4.10 m
Spannweite 29.00 m
Form Box + pan
Hersteller SPXS
Bus-Typ Starlink V2MD
Phasenstatus In Orbit
Besitzer/Staat SPXS/US

Große Konstellationen

Loading constellations...